TimeMST,TemperatureF,Dew PointF,Humidity,Sea Level PressureIn,VisibilityMPH,Wind Direction,Wind SpeedMPH,Gust SpeedMPH,PrecipitationIn,Events,Conditions,WindDirDegrees,DateUTC
12:53 AM,39.9,26.1,58,30.02,10.0,SSW,16.1,25.3,N/A,,Clear,210,2011-11-23 07:53:00
1:53 AM,39.0,26.1,60,30.03,10.0,SW,18.4,25.3,N/A,,Clear,220,2011-11-23 08:53:00
2:53 AM,39.0,26.1,60,30.01,10.0,SW,18.4,25.3,N/A,,Clear,220,2011-11-23 09:53:00
3:53 AM,39.9,26.1,58,29.99,10.0,SW,18.4,-,N/A,,Clear,230,2011-11-23 10:53:00
4:53 AM,41.0,26.1,55,30.01,10.0,SW,23.0,29.9,N/A,,Clear,230,2011-11-23 11:53:00
5:53 AM,41.0,25.0,53,29.99,10.0,SW,20.7,29.9,N/A,,Clear,220,2011-11-23 12:53:00
6:53 AM,39.9,25.0,55,30.00,10.0,SW,17.3,26.5,N/A,,Clear,220,2011-11-23 13:53:00
7:53 AM,43.0,24.1,47,29.97,10.0,SW,27.6,36.8,N/A,,Clear,220,2011-11-23 14:53:00
8:53 AM,45.0,25.0,46,29.96,10.0,SW,27.6,34.5,N/A,,Clear,220,2011-11-23 15:53:00
9:53 AM,46.9,25.0,42,29.96,10.0,SW,25.3,39.1,N/A,,Clear,220,2011-11-23 16:53:00
10:53 AM,48.9,26.1,41,29.93,10.0,SW,28.8,44.9,N/A,,Clear,220,2011-11-23 17:53:00
11:53 AM,50.0,27.0,41,29.88,10.0,SW,28.8,41.4,N/A,,Clear,220,2011-11-23 18:53:00
12:53 PM,50.0,27.0,41,29.84,10.0,SW,26.5,39.1,N/A,,Clear,220,2011-11-23 19:53:00
1:53 PM,50.0,28.0,43,29.84,10.0,SW,24.2,33.4,N/A,,Clear,230,2011-11-23 20:53:00
2:53 PM,48.9,27.0,43,29.85,10.0,SW,20.7,35.7,N/A,,Clear,230,2011-11-23 21:53:00
3:53 PM,50.0,26.1,39,29.84,10.0,SW,26.5,33.4,N/A,,Clear,230,2011-11-23 22:53:00
4:53 PM,48.9,25.0,39,29.84,10.0,SW,23.0,34.5,N/A,,Clear,220,2011-11-23 23:53:00
5:53 PM,48.0,25.0,41,29.85,10.0,SSW,24.2,29.9,N/A,,Clear,210,2011-11-24 00:53:00
6:53 PM,46.9,26.1,44,29.84,10.0,SSW,19.6,26.5,N/A,,Clear,210,2011-11-24 01:53:00
7:53 PM,48.9,25.0,39,29.81,10.0,SW,25.3,34.5,N/A,,Clear,220,2011-11-24 02:53:00
8:53 PM,48.0,23.0,37,29.79,10.0,SW,31.1,41.4,N/A,,Clear,230,2011-11-24 03:53:00
9:53 PM,48.9,23.0,36,29.76,10.0,SSW,31.1,43.7,N/A,,Clear,210,2011-11-24 04:53:00
10:53 PM,48.9,23.0,36,29.74,10.0,SW,31.1,41.4,N/A,,Clear,220,2011-11-24 05:53:00
11:53 PM,48.0,25.0,41,29.75,10.0,SW,28.8,41.4,N/A,,Clear,220,2011-11-24 06:53:00